sat.trackr.live / text

‹ back to catalog

STARLINK-11543 [DTC]

NORAD 62981 · 2025-031A

PAYLOAD ACTIVE UNKNOWN

§ Identity

Operator
Country
US
Launch date
2025-02-11
Launch site
AFETR
Launch vehicle
Mass (kg)
RCS (m²)

Purposes: comms

External: N2YO · Heavens-Above · Gunter

§ Orbital elements

Epoch: 2026-09-21T09:10:18.400224Z

Period
91.67 min
Inclination
43.0003°
Eccentricity
0.0001317
Mean motion
15.70862825 rev/d
Perigee alt
355.5 km
Apogee alt
357.3 km
Semi-major
6,734.6 km
B*
1.0061e-3
RAAN
261.5431°
Arg perigee
263.1346°
Mean anomaly
96.9372°
Rev number
9,352

§ Raw data

STARLINK-11543 [DTC]1 62981U 25031A   26264.38215741  .00130817  00000+0  10061-2 0  99972 62981  43.0003 261.5431 0001317 263.1346  96.9372 15.70862825 93526

JSON: /api/v1/satellites/62981 · /tle

For live sub-satellite position, see the globe view (requires WebGL).

§ Visibility from observer

Set your observer location to see the next 7 days of passes ≥ 10°. The values pass through the URL so the page stays shareable.

No JS? Fill the form by hand. The geolocation button needs JavaScript.